Location: Unspecified
(58.9933°N, 5.6375°E)
Time: 13:47:32
(UTC+02:00)

Cosmos 2058 - Visible Passes

Search period start: 27 May 2015 00:00
Search period end: 06 June 2015 00:00
Orbit: 568 x 588 km, 82.5° (Epoch: 26 May)

Date Brightness Start Highest point End Pass type
(mag) Time Alt. Az. Time Alt. Az. Time Alt. Az.
27 May 5.0 01:22:04 10° SE 01:24:55 18° E 01:27:53 10° NE visible
27 May 3.0 02:57:21 10° SSW 03:01:28 77° WNW 03:05:43 10° NNE visible
28 May 4.7 01:25:58 10° SE 01:29:13 23° E 01:32:34 10° NE visible
28 May 3.2 03:01:46 10° SSW 03:05:55 62° WNW 03:10:08 10° N visible
29 May 4.4 01:29:58 10° SSE 01:33:33 28° E 01:37:11 10° NNE visible
29 May 3.5 03:06:18 10° SW 03:10:24 49° WNW 03:14:32 10° N visible
30 May 4.1 01:34:08 10° SSE 01:37:52 34° E 01:41:44 10° NNE visible
30 May 3.9 03:10:54 10° SW 03:14:53 40° WNW 03:18:54 10° N visible
31 May 3.7 01:38:28 11° SSE 01:42:13 43° E 01:46:16 10° NNE visible
31 May 4.2 03:15:33 10° SW 03:19:23 33° WNW 03:23:15 10° N visible
01 Jun 3.4 01:42:48 12° S 01:46:35 54° E 01:50:45 10° NNE visible
01 Jun 4.5 03:20:16 10° WSW 03:23:55 27° WNW 03:27:34 10° N visible
02 Jun 5.3 00:13:04 10° ESE 00:14:41 12° E 00:16:30 10° NE visible
02 Jun 3.1 01:47:06 12° S 01:50:58 68° E 01:55:12 10° NNE visible
03 Jun 5.1 00:16:34 10° ESE 00:18:58 15° E 00:21:28 10° NE visible
03 Jun 3.0 01:51:24 11° S 01:55:22 85° ESE 01:59:39 10° NNE visible
04 Jun 4.8 00:20:20 10° SE 00:23:14 19° E 00:26:14 10° NE visible
04 Jun 3.0 01:55:41 11° SSW 01:59:48 77° WNW 02:04:04 10° NNE visible
05 Jun 4.6 00:24:14 10° SE 00:27:31 23° E 00:30:54 10° NE visible
05 Jun 3.3 02:00:03 10° SSW 02:04:14 62° WNW 02:08:28 10° N visible
